Flag for Germany Weather for the Past 2 Weeks in Bietigheim-Bissingen, Baden-Württemberg, Germany

Now
45 °F

Light rain. Partly cloudy.


Feels Like: 38 °F
Forecast: 41 / 51 °F
Wind: 13 mph from South

Location: Stuttgart-Echterdingen

Current Time: Feb 8, 2016 at 8:08:45 AM

Latest Report: Feb 8, 2016 at 7:20 AM


Visibility: N/A

Pressure: 29.68 "Hg

Humidity: 57%

Dew point: 30 °F

Location of Bietigheim-BissingenLocation

Historic Weather in Bietigheim-Bissingen — Graph

°F

Bietigheim-Bissingen Temperature Yesterday

Maximum temperature yesterday: 46 °F (at 1:20 PM)
Minimum temperature yesterday: 34 °F (at 4:50 AM)
Average temperature yesterday: 40 °F

High & Low Weather Summary for the Past Weeks

 TemperatureHumidityPressure
High61 °F (Jan 26, 2:20 PM)100% (Jan 24, 6:20 AM)30.54 "Hg (Jan 24, 6:20 AM)
Low25 °F (Jan 24, 6:20 AM)44% (Feb 6, 1:20 PM)29.62 "Hg (Feb 7, 8:50 AM)
Average44 °F81%30.17 "Hg
* Reported Jan 24 6:20 AM — Feb 8 6:50 AM, Bietigheim-Bissingen, Weather by CustomWeather, © 2016

Note: Actual official high and low records may vary slightly from our data, if they occured in-between our weather recording intervals... More about our weather records

Advertising

Bietigheim-Bissingen Weather History for the Previous 24 Hours

 ConditionsComfort  
Time TempWeatherWind HumidityBarometerVisibility
6:50 AM
Mon, Feb 8
43 °FLight rain. Partly cloudy.8 mph66%29.71 "HgN/A
6:20 AM43 °FPartly cloudy.7 mph61%29.71 "HgN/A
5:50 AM41 °FClear.8 mph70%29.74 "Hg10 mi
5:20 AM41 °FClear.3 mph70%29.74 "Hg10 mi
4:20 AM41 °FClear.9 mph70%29.77 "Hg10 mi
3:50 AM41 °FClear.9 mph70%29.77 "Hg10 mi
2:50 AM41 °FClear.7 mph70%29.80 "Hg10 mi
2:20 AM41 °FClear.7 mph70%29.80 "Hg10 mi
1:50 AM41 °FClear.10 mph76%29.80 "Hg10 mi
1:20 AM41 °FClear.9 mph76%29.83 "Hg10 mi
12:50 AM41 °FClear.6 mph76%29.83 "Hg10 mi
12:20 AM41 °FClear.6 mph76%29.83 "Hg10 mi
11:20 PM
Sun, Feb 7
41 °FPassing clouds.5 mph76%29.86 "HgN/A
10:50 PM41 °FClear.8 mph76%29.86 "Hg10 mi
10:20 PM41 °FPassing clouds.7 mph76%29.86 "HgN/A
9:50 PM43 °FClear.12 mph71%29.86 "Hg10 mi
9:20 PM43 °FClear.12 mph76%29.83 "Hg10 mi
8:50 PM43 °FPassing clouds.12 mph76%29.83 "HgN/A
8:20 PM43 °FPassing clouds.13 mph76%29.83 "HgN/A
7:50 PM43 °FPassing clouds.10 mph76%29.83 "HgN/A
7:20 PM43 °FPassing clouds.10 mph76%29.83 "HgN/A
6:50 PM43 °FClear.7 mph81%29.80 "Hg10 mi
6:20 PM43 °FPassing clouds.7 mph81%29.80 "HgN/A
5:50 PM45 °FPassing clouds.8 mph76%29.80 "HgN/A
5:20 PM45 °FBroken clouds.7 mph71%29.77 "HgN/A
4:20 PM45 °FLight rain. Broken clouds.9 mph71%29.77 "HgN/A
3:50 PM46 °FLight rain. Broken clouds.8 mph71%29.74 "HgN/A
3:20 PM46 °FBroken clouds.14 mph71%29.74 "HgN/A
2:50 PM46 °FPartly sunny.16 mph71%29.71 "HgN/A
2:20 PM46 °FBroken clouds.3 mph76%29.71 "HgN/A
1:50 PM46 °FBroken clouds.2 mph71%29.68 "HgN/A
1:20 PM46 °FPartly sunny.2 mph71%29.68 "HgN/A
12:50 PM45 °FPartly sunny.1 mph76%29.65 "HgN/A
12:20 PM43 °FPassing clouds.3 mph76%29.65 "HgN/A
11:50 AM41 °FSunny.1 mph81%29.62 "Hg10 mi
11:20 AM39 °FSunny.1 mph87%29.62 "Hg10 mi
10:50 AM39 °FSunny.1 mph87%29.62 "Hg10 mi
10:20 AM37 °FSunny.3 mph93%29.62 "Hg10 mi
9:50 AM36 °FSunny.2 mph87%29.62 "Hg10 mi
9:20 AM36 °FSunny.1 mph87%29.62 "Hg10 mi
8:50 AM36 °FSunny.1 mph87%29.62 "Hg10 mi
8:20 AM34 °FSunny.5 mph100%29.65 "Hg10 mi
Weather by CustomWeather, © 2016

See weather overviewHow to use our weather pages